Location: Góry Miechowskie
(50.3599°N, 20.1803°E)
Time: 02:53:44
(UTC+00:00)

Cosmos 1869 - Visible Passes

Search period start: 18 September 2024 00:00
Search period end: 28 September 2024 00:00
Orbit: 486 x 520 km, 82.5° (Epoch: 17 September)

Date Brightness Start Highest point End Pass type
(mag) Time Alt. Az. Time Alt. Az. Time Alt. Az.
18 Sep 5.8 00:35:25 19° NNE 00:35:25 19° NNE 00:36:37 10° NNE visible
18 Sep 5.5 02:10:11 13° NW 02:10:11 13° NW 02:11:07 10° NNW visible
19 Sep 6.2 00:16:51 14° NNE 00:16:51 14° NNE 00:17:33 10° NNE visible
19 Sep 5.5 01:51:36 14° NNW 01:51:36 14° NNW 01:52:30 10° NNW visible
19 Sep 6.5 23:58:13 11° NNE 23:58:13 11° NNE 23:58:22 10° NNE visible
20 Sep 5.7 01:32:58 14° NNW 01:32:58 14° NNW 01:33:44 10° NNW visible
21 Sep 5.9 01:14:17 13° NNW 01:14:17 13° NNW 01:14:51 10° N visible
22 Sep 6.1 00:55:31 12° N 00:55:31 12° N 00:55:53 10° N visible
23 Sep 6.3 00:36:43 11° N 00:36:43 11° N 00:36:49 10° N visible
